Weather History for KITH - November, 2013

Change the Weather History Date:

Thursday, November 14, 2013

  Actual Average Record
Temperature  
Mean Temperature 38 °F -  
Max Temperature 50 °F 44 °F 67 °F (1930)
Min Temperature 26 °F 29 °F 14 °F (1983)
Degree Days  
Heating Degree Days 27    
Moisture  
Dew Point 13 °F    
Average Humidity 38    
Maximum Humidity 60    
Minimum Humidity 24    
Precipitation  
Precipitation 0.00 in - - ()
Sea Level Pressure  
Sea Level Pressure 30.14 in    
Wind  
Wind Speed 8 mph (SSW)    
Max Wind Speed 14 mph    
Max Gust Speed 20 mph    
Visibility 10 miles    
Events      
Averages and records for this station are not official NWS values.
T = Trace of Precipitation, MM = Missing Value Source: NWS Daily Summary

Daily Weather History Graph

Daily Weather History Graph

Search for Another Location

Airport or City:

Trip Planner

Search our weather history database for the weather conditions in past years. The results will help you decide how hot, cold, wet, or windy it might be!

Date:

Astronomy

Nov. 14, 2013 Rise Set
Actual Time 6:55 AM EST 4:44 PM EST
Civil Twilight 6:25 AM EST 5:14 PM EST
Nautical Twilight 5:51 AM EST 5:48 PM EST
Astronomical Twilight 5:18 AM EST 6:21 PM EST
Moon 3:07 PM EST (11/14) 3:45 AM EST (11/14)
Length of Visible Light 10h 48m
Length of Day
9h 48m
Waxing Gibbous, 91% of the Moon is Illuminated
Nov 14
Waxing Gibbous
Nov 17
Full
Nov 25
Last Quarter
Dec 2
New
Dec 9
First Quarter

Hourly Weather History & Observations

Time (EST) Temp. Windchill Dew Point Humidity Pressure Visibility Wind Dir Wind Speed Gust Speed Precip Events Conditions
12:56 AM 30.0 °F 21.7 °F 15.1 °F 54% 30.16 in 10.0 mi SSW 9.2 mph - N/A   Clear
1:56 AM 30.0 °F 25.2 °F 13.1 °F 49% 30.16 in 10.0 mi South 4.6 mph - N/A   Clear
2:56 AM 28.0 °F 20.0 °F 13.1 °F 54% 30.15 in 10.0 mi South 8.1 mph - N/A   Clear
3:56 AM 26.1 °F 18.4 °F 14.0 °F 60% 30.16 in 10.0 mi South 6.9 mph - N/A   Clear
4:56 AM 27.1 °F 21.8 °F 12.0 °F 53% 30.16 in 10.0 mi SSW 4.6 mph - N/A   Clear
5:56 AM 30.0 °F 23.2 °F 11.1 °F 45% 30.17 in 10.0 mi SW 6.9 mph - N/A   Clear
6:23 AM 30.2 °F 22.6 °F 12.2 °F 47% 30.13 in 10.0 mi SW 8.1 mph - N/A   Clear
6:56 AM 30.0 °F 23.2 °F 11.1 °F 45% 30.18 in 10.0 mi SSW 6.9 mph - N/A   Clear
7:56 AM 32.0 °F 23.0 °F 13.1 °F 46% 30.18 in 10.0 mi SW 11.5 mph - N/A   Clear
8:56 AM 36.0 °F 28.5 °F 13.1 °F 39% 30.19 in 10.0 mi SSW 10.4 mph - N/A   Clear
9:56 AM 37.9 °F 30.9 °F 14.0 °F 38% 30.19 in 10.0 mi SW 10.4 mph - N/A   Clear
10:56 AM 41.0 °F 36.4 °F 14.0 °F 33% 30.18 in 10.0 mi SW 6.9 mph - N/A   Clear
11:56 AM 45.0 °F 39.3 °F 17.1 °F 33% 30.14 in 10.0 mi SSW 11.5 mph - N/A   Clear
12:56 PM 46.9 °F - 13.1 °F 26% 30.12 in 10.0 mi WSW 13.8 mph 19.6 mph N/A   Clear
1:56 PM 50.0 °F - 14.0 °F 24% 30.11 in 10.0 mi WSW 9.2 mph - N/A   Clear
2:56 PM 48.9 °F - 15.1 °F 26% 30.10 in 10.0 mi SSW 10.4 mph - N/A   Clear
3:56 PM 48.9 °F - 14.0 °F 25% 30.10 in 10.0 mi SW 5.8 mph - N/A   Clear
4:56 PM 43.9 °F 39.9 °F 14.0 °F 30% 30.11 in 10.0 mi SSE 6.9 mph - N/A   Clear
5:56 PM 41.9 °F 37.5 °F 13.1 °F 31% 30.12 in 10.0 mi SSW 6.9 mph - N/A   Clear
6:56 PM 38.8 °F 34.6 °F 14.0 °F 36% 30.12 in 10.0 mi SSE 5.8 mph - N/A   Clear
7:56 PM 38.8 °F 33.8 °F 13.1 °F 35% 30.12 in 10.0 mi South 6.9 mph - N/A   Clear
8:56 PM 41.0 °F 33.9 °F 12.0 °F 31% 30.10 in 10.0 mi South 12.7 mph - N/A   Clear
9:56 PM 41.0 °F 36.4 °F 12.0 °F 31% 30.12 in 10.0 mi South 6.9 mph - N/A   Clear
10:56 PM 39.9 °F 36.7 °F 13.1 °F 33% 30.12 in 10.0 mi SSE 4.6 mph - N/A   Clear
11:56 PM 37.9 °F 32.7 °F 14.0 °F 38% 30.14 in 10.0 mi South 6.9 mph - N/A   Clear